[[{"header":{"parameterUnit":"m.s-1","parameterCategory":1,"la1":30.2991,"la2":30.254,"lo1":-89.0895,"lo2":-89.0444,"dy":0.0017,"dx":0.0017,"nx":28,"ny":28,"refTime":"2025-03-14T03:00:00:Z","depth":0,"parameterNumber":2,"parameterNumberName":"U-component_of_WINDS"},"data":[0,0,0,0,0,0,0,0,0,0,0,0,0,0,0,0,0,0,0,0,0,0,0,0,0,0,0,0,0,0,0,0,0,0,0,0,0,0,0,0,0,0,0,0,0,0,0,0,0,0,0,0,0,0,0,0,0,0,1.3076,1.3072,0,1.272,1.2716,1.2712,1.2497,1.2496,1.2495,1.2494,1.2125,1.2116,1.2108,0,0,0,0,0,0,0,0,0,0,0,0,0,1.3566,1.3558,1.3076,1.3072,1.3067,1.2721,1.2716,1.2711,1.2497,1.2496,1.2495,1.2494,1.2128,1.2118,1.2107,0,0,0,0,0,0,0,0,0,0,0,0,0,1.3296,1.3555,1.3077,1.2919,1.2901,1.2722,1.2716,1.271,1.2498,1.2496,1.2494,1.2493,1.2131,1.2119,1.2105,1.2054,0,0,1.2065,1.2059,0,0,0,0,0,0,0,0,1.3312,1.3278,1.2947,1.293,1.2909,1.2652,1.2753,1.249,1.2498,1.2651,1.2494,1.2492,1.2301,1.2274,1.221,1.2037,1.2021,1.2064,1.2056,1.205,1.2046,0,0,0,0,0,0,0,1.333,1.3292,1.2935,1.2942,1.2919,1.2864,1.2824,1.2702,1.2489,1.2637,1.2621,1.2582,1.2291,1.2224,1.22,1.2016,1.2064,1.2052,1.2044,1.2039,1.1781,1.1782,0,0,0,0,0,0,1.3375,1.3309,1.2946,1.2924,1.3111,1.2857,1.2812,1.2736,1.249,1.2451,1.2584,1.2573,1.2247,1.2216,1.2186,1.2109,1.205,1.2037,1.203,1.178,1.1781,1.1783,0,0,0,0,0,0,1.3386,1.3345,1.2961,1.3112,1.3059,1.285,1.2766,1.273,1.2662,1.2449,1.2409,1.2555,1.2245,1.2205,1.2089,1.2094,1.2031,1.2019,1.1779,1.178,1.1782,1.1956,0,0,0,0,0,0,1.3401,1.335,1.3329,1.3113,1.3052,1.2871,1.2766,1.2724,1.2641,1.2624,1.2411,1.2375,1.224,1.211,1.2076,1.2074,1.2009,1.1777,1.1779,1.1781,1.1949,1.1964,1.1976,0,0,0,0,0,1.342,1.3392,1.333,1.3287,1.3022,1.2872,1.2836,1.2684,1.2642,1.2619,1.2482,1.2381,1.2099,1.21,1.2059,1.2054,1.1776,1.1779,1.1781,1.1943,1.1961,1.1976,0,0,0,0,0,0,1.3612,1.336,1.3289,1.319,1.3055,1.2836,1.2802,1.2708,1.2579,1.2569,1.2383,1.2337,1.2239,1.2134,1.214,1.1991,1.1926,1.1921,1.2063,1.2078,1.2092,1.2118,1.1998,0,0,0,0,0,1.3643,1.3544,1.3329,1.3263,1.3198,1.3013,1.2941,1.2836,1.2687,1.2628,1.2482,1.234,1.2218,1.2142,1.2019,1.1933,1.1883,1.191,1.1923,1.1936,1.1933,1.1879,1.1888,1.1791,1.1791,1.1791,0,0,1.3706,1.3556,1.3504,1.3298,1.318,1.308,1.2965,1.2864,1.2787,1.2611,1.2493,1.2382,1.221,1.211,1.2058,1.2019,1.1949,1.1939,1.195,1.194,1.1882,1.1892,1.19,1.1793,1.1792,1.1792,0,0,1.3769,1.3647,1.3578,1.3463,1.3287,1.3163,1.3148,1.2943,1.2863,1.2742,1.2608,1.2513,1.2309,1.2192,1.2106,1.2127,1.203,1.2092,1.2163,1.2112,1.212,1.2126,1.2133,1.2137,1.209,1.2091,1.2091,0,1.3869,1.3714,1.3555,1.3461,1.3374,1.3212,1.314,1.3036,1.2828,1.2771,1.2731,1.2472,1.2345,1.2214,1.222,1.2156,1.2131,1.2115,1.2132,1.2136,1.2139,1.2144,1.2147,1.2099,1.2098,1.2098,1.2097,0,1.3845,1.374,1.3706,1.3511,1.342,1.3338,1.3165,1.3091,1.2994,1.2876,1.2754,1.2596,1.2439,1.24,1.2303,1.2255,1.2237,1.2168,1.2098,1.216,1.2161,1.2161,1.2112,1.2109,1.2106,1.2104,0,0,1.4018,1.3738,1.3728,1.3638,1.3432,1.3347,1.3257,1.3105,1.3045,1.2907,1.2827,1.2659,1.2593,1.2496,1.2385,1.2341,1.2367,1.2276,1.2269,1.2298,1.2304,1.2357,1.2362,1.2302,1.2302,1.2302,1.2318,0,1.405,1.3884,1.3738,1.3624,1.3524,1.337,1.3292,1.3157,1.3044,1.2941,1.2814,1.2698,1.2621,1.2562,1.2511,1.2375,1.2366,1.2372,1.2224,1.2221,1.2271,1.2362,1.2417,1.244,1.2317,1.2317,1.2317,0,1.4065,1.3937,1.3814,1.3619,1.3571,1.3504,1.3353,1.3257,1.3101,1.3021,1.2914,1.2798,1.2695,1.2638,1.2493,1.2501,1.2431,1.2356,1.2353,1.2332,1.2272,1.2343,1.2444,1.2448,1.2316,1.2316,1.2316,0,1.4204,1.3999,1.3899,1.3826,1.3596,1.3553,1.3455,1.3296,1.3214,1.3081,1.3026,1.2883,1.2804,1.2695,1.2543,1.2516,1.2414,1.2345,1.2344,1.2348,1.2328,1.2332,1.2419,1.2286,1.2286,1.2286,1.2286,0,1.4254,1.4185,1.3958,1.3896,1.3814,1.3647,1.3569,1.3457,1.3318,1.3231,1.3088,1.3009,1.2814,1.2711,1.2591,1.2489,1.2455,1.2386,1.2355,1.2398,1.2407,1.235,1.2344,1.2287,1.2287,1.2287,1.2287,0,1.4393,1.4239,1.4119,1.3912,1.3859,1.3807,1.3629,1.3562,1.3442,1.3333,1.3298,1.3108,1.298,1.2818,1.2638,1.2557,1.2468,1.242,1.2522,1.2503,1.2512,1.2513,1.2564,1.2562,1.2434,1.2435,1.2437,0,1.4435,1.4379,1.4167,1.4099,1.4006,1.3899,1.3815,1.3648,1.3566,1.3384,1.334,1.3201,1.3081,1.2883,1.2728,1.2589,1.2536,1.2564,1.2514,1.256,1.2536,1.2541,1.2534,1.2577,1.2579,1.2581,1.2582,0,1.4526,1.4453,1.4338,1.4198,1.4102,1.3982,1.3856,1.3809,1.3616,1.3531,1.3399,1.3306,1.3123,1.2987,1.2828,1.2725,1.2621,1.26,1.2592,1.2635,1.2696,1.2662,1.2555,1.2599,1.2597,1.2596,1.2595,1.2594,1.4616,1.4559,1.4402,1.4279,1.4167,1.4053,1.3981,1.3852,1.374,1.3579,1.3487,1.3359,1.3203,1.2979,1.2881,1.2776,1.2737,1.2727,1.2724,1.2723,1.2737,1.2714,1.2747,1.2746,1.2745,1.2745,1.2744,0,1.4699,1.4591,1.448,1.4309,1.4213,1.4126,1.3982,1.3907,1.3796,1.366,1.3546,1.3395,1.3262,1.3098,1.2953,1.2902,1.285,1.2869,1.2871,1.2848,1.278,1.2801,1.2913,1.2913,1.2913,1.2913,1.2913,1.2913,1.4731,1.4629,1.4538,1.4379,1.427,1.4144,1.407,1.3963,1.3854,1.3692,1.3582,1.3477,1.3329,1.3173,1.3047,1.3002,1.2955,1.2989,1.2929,1.2868,1.2853,1.2839,1.2857,1.298,1.298,1.3006,1.3006,1.3006]},{"header":{"parameterUnit":"m.s-1","parameterCategory":1,"la1":30.2991,"la2":30.254,"lo1":-89.0895,"lo2":-89.0444,"dy":0.0017,"dx":0.0017,"nx":28,"ny":28,"refTime":"2025-03-14T03:00:00:Z","depth":0,"parameterNumber":3,"parameterNumberName":"V-component_of_WINDS"},"data":[0,0,0,0,0,0,0,0,0,0,0,0,0,0,0,0,0,0,0,0,0,0,0,0,0,0,0,0,0,0,0,0,0,0,0,0,0,0,0,0,0,0,0,0,0,0,0,0,0,0,0,0,0,0,0,0,0,0,8.2778,8.2784,0,8.336,8.3367,8.3374,8.351,8.3506,8.3502,8.3498,8.4097,8.4116,8.4135,0,0,0,0,0,0,0,0,0,0,0,0,0,8.1785,8.1802,8.2777,8.2784,8.2792,8.3359,8.3367,8.3375,8.3511,8.3506,8.3501,8.3497,8.409,8.4113,8.4137,0,0,0,0,0,0,0,0,0,0,0,0,0,8.2276,8.1808,8.2776,8.2928,8.2947,8.3358,8.3368,8.3377,8.3512,8.3506,8.35,8.3494,8.4082,8.4111,8.414,8.4441,0,0,8.423,8.4243,0,0,0,0,0,0,0,0,8.2248,8.2313,8.2898,8.2918,8.294,8.3356,8.3237,8.3734,8.3513,8.3298,8.3498,8.3491,8.3855,8.3903,8.4026,8.4469,8.4495,8.4233,8.4251,8.4263,8.4272,0,0,0,0,0,0,0,8.2214,8.2289,8.3008,8.2906,8.2933,8.2968,8.3031,8.3332,8.3603,8.3316,8.3327,8.3394,8.3866,8.3997,8.4041,8.4504,8.4232,8.4258,8.4276,8.4288,8.5229,8.5236,0,0,0,0,0,0,8.2153,8.2259,8.2989,8.3025,8.2573,8.2991,8.3061,8.3229,8.36,8.3651,8.3399,8.3398,8.3949,8.4006,8.4062,8.4444,8.4263,8.4291,8.4308,8.5222,8.5231,8.5239,0,0,0,0,0,0,8.2131,8.2217,8.2966,8.2646,8.2744,8.3014,8.3201,8.3244,8.3375,8.3663,8.3712,8.3483,8.3947,8.4021,8.4347,8.4466,8.4304,8.4331,8.5213,8.5225,8.5235,8.5205,0,0,0,0,0,0,8.2102,8.2208,8.2325,8.2647,8.276,8.324,8.3208,8.3259,8.3425,8.343,8.3754,8.3802,8.3948,8.4302,8.4376,8.4503,8.4354,8.5204,8.5218,8.5231,8.5196,8.5213,8.5228,0,0,0,0,0,8.2066,8.2292,8.233,8.2417,8.2911,8.3246,8.3311,8.3474,8.3434,8.3554,8.374,8.3792,8.444,8.4335,8.4419,8.4557,8.5197,8.5214,8.523,8.5189,8.521,8.5227,0,0,0,0,0,0,8.1976,8.2337,8.2383,8.272,8.2951,8.3269,8.3425,8.349,8.3738,8.3733,8.3924,8.3996,8.4311,8.4466,8.4343,8.487,8.4818,8.4852,8.4758,8.478,8.4795,8.4753,8.4378,0,0,0,0,0,8.1995,8.2237,8.2539,8.2807,8.2921,8.3153,8.3305,8.341,8.3658,8.3757,8.3966,8.4205,8.4464,8.463,8.4883,8.5218,8.5293,8.5355,8.537,8.5382,8.541,8.5604,8.5636,8.5293,8.5293,8.5292,0,0,8.2038,8.2265,8.2405,8.2795,8.2987,8.3235,8.3235,8.3495,8.3682,8.3797,8.412,8.4281,8.4561,8.4894,8.5051,8.5033,8.5521,8.5403,8.541,8.5433,8.5624,8.5656,8.5685,8.5304,8.5302,8.53,0,0,8.2242,8.2436,8.2684,8.2876,8.3168,8.3321,8.3379,8.3689,8.3801,8.4127,8.422,8.4444,8.4883,8.5081,8.5238,8.552,8.5579,8.5596,8.568,8.5866,8.5894,8.5919,8.6023,8.6058,8.5623,8.5623,8.5623,0,8.2258,8.2635,8.2802,8.3061,8.3231,8.3347,8.36,8.3779,8.4137,8.4253,8.4226,8.4783,8.4979,8.5363,8.5432,8.5554,8.563,8.5562,8.5876,8.5903,8.5929,8.6031,8.6069,8.5624,8.5624,8.5623,8.5623,0,8.2642,8.2902,8.3066,8.3411,8.36,8.3853,8.4061,8.4232,8.4321,8.4477,8.481,8.5049,8.5355,8.5453,8.5541,8.585,8.5831,8.5837,8.579,8.5959,8.6059,8.6099,8.5624,8.5624,8.5624,8.5624,0,0,8.2807,8.3243,8.3301,8.3461,8.3791,8.3996,8.4256,8.4555,8.47,8.4943,8.5169,8.5538,8.5549,8.5727,8.5839,8.6002,8.6216,8.5991,8.6001,8.6028,8.6576,8.6571,8.6613,8.6255,8.6263,8.627,8.6554,0,8.3055,8.3525,8.3684,8.4074,8.4318,8.4432,8.466,8.4888,8.5041,8.5271,8.544,8.5702,8.5692,8.5802,8.5968,8.6154,8.6329,8.6135,8.647,8.648,8.64,8.6665,8.6661,8.6917,8.6593,8.66,8.6605,0,8.3408,8.3658,8.4072,8.4376,8.4485,8.4686,8.4975,8.5193,8.5455,8.5555,8.5756,8.5857,8.6136,8.6068,8.6457,8.6322,8.6468,8.658,8.6594,8.6635,8.6555,8.6717,8.7002,8.7042,8.6667,8.6662,8.6657,0,8.3492,8.3932,8.4238,8.437,8.4731,8.4871,8.5028,8.5284,8.5455,8.5707,8.5821,8.6102,8.6257,8.6472,8.6647,8.6581,8.7022,8.6968,8.7116,8.7112,8.7207,8.7199,8.7524,8.7293,8.7292,8.7292,8.7291,0,8.3755,8.4004,8.4281,8.447,8.4754,8.4935,8.5212,8.5375,8.5603,8.5827,8.5941,8.6149,8.6365,8.6602,8.674,8.7044,8.7112,8.7203,8.7237,8.7195,8.7184,8.7296,8.7285,8.7302,8.73,8.7298,8.7296,0,8.3897,8.4092,8.4434,8.4748,8.4833,8.5029,8.5299,8.5488,8.5645,8.5928,8.6004,8.6253,8.6538,8.6733,8.7097,8.719,8.752,8.755,8.7432,8.745,8.7589,8.7574,8.8,8.8067,8.7787,8.7789,8.7791,0,8.4054,8.4249,8.4585,8.4744,8.4901,8.5154,8.533,8.5516,8.5695,8.601,8.6161,8.6454,8.6698,8.7148,8.7362,8.7643,8.7683,8.7812,8.7726,8.7678,8.769,8.7678,8.7701,8.7826,8.7829,8.783,8.7832,0,8.4313,8.4401,8.4649,8.4934,8.514,8.5372,8.5606,8.5729,8.5956,8.6151,8.6445,8.6634,8.7008,8.7298,8.76,8.7763,8.7838,8.7857,8.7907,8.7868,8.7794,8.7841,8.7474,8.7847,8.7846,8.7845,8.7844,8.7843,8.4471,8.4652,8.4918,8.5192,8.5387,8.5604,8.5798,8.5981,8.6228,8.6548,8.6642,8.6948,8.7209,8.7622,8.7789,8.8033,8.8022,8.8093,8.8112,8.8128,8.813,8.7751,8.8087,8.8087,8.8087,8.8087,8.8087,0,8.474,8.4917,8.5167,8.5492,8.5708,8.5758,8.602,8.6198,8.6466,8.6703,8.6942,8.728,8.7563,8.78,8.8093,8.8242,8.8284,8.8313,8.8306,8.8344,8.812,8.805,8.8275,8.8275,8.8275,8.8275,8.8275,8.8275,8.4905,8.5215,8.5334,8.5744,8.592,8.6221,8.6367,8.6568,8.6758,8.7132,8.7368,8.752,8.7758,8.807,8.8333,8.8395,8.85,8.8522,8.8592,8.838,8.8359,8.8338,8.8274,8.8542,8.8542,8.8797,8.8799,8.8801]}]]